Weather in Usady

Russia / Republic of Tatarstan     55°59′41″N   49°18′21″E
temp.,
°C
wind,
m/s
gust,
m/s
humid.,
%
clouds,
%
prec.,
mm/h
press.,
hPa
HPBL,
m
10 may, mon
mon1000:00+14sse347783 0.0 101467
03:00+13sse2483100 0.1 101573
06:00+14e2484100 2.1 1017113
09:00+18ese3567100 2.1 1018309
12:00+22sse3447100 0.0 1019998
15:00+23se344393 0.0 10201663
18:00+21se2254100 0.0 102015
21:00+16n488266 0.0 1022156
11 may, tue
tue1100:00+14nne499099 0.1 1022201
03:00+15nne3685100 0.1 1023141
06:00+15ne488597 0.0 1025240
09:00+20ene456196 0.0 1026566
12:00+23ene444699 0.0 10261241
15:00+24ene334092 0.0 10262319
18:00+22e235385 0.0 102659
21:00+17ene477299 0.1 1027135
12 may, wed
wed1200:00+15ene358543 0.0 102883
03:00+14ne358641 0.0 102871
06:00+16ene36796 0.0 1028180
09:00+21e46498 0.0 1028743
12:00+24se45429 0.0 10281667
15:00+25se353657 0.0 10272391
18:00+22ese23507 0.0 1027136
21:00+18ese235759 0.0 102728
13 may, thu
thu1300:00+15ese33585 0.0 102732
03:00+14ese226729 0.0 102713
06:00+17ese246629 0.0 1027124
09:00+21se574525 0.0 1027750
12:00+23se673837 0.0 10261459
15:00+24sse5640100 0.0 10251458
18:00+22sse245678 0.0 1025115
21:00+17ene226989 0.0 102416
14 may, fri
fri1400:00+17se3664100 0.0 1024133
03:00+15se376995 0.1 1024128
06:00+17se397014 0.3 1024254
09:00+22sse694761 0.3 1023588
12:00+25s71039100 0.0 10221187
15:00+25s61043100 0.0 10211379
18:00+22s495897 0.0 1021256
21:00+18s356482 0.0 102165